Home   Weather   Green Bay   Past weeks

Flag for USA Past Weather in Green Bay, Wisconsin, USA — Yesterday and Last 2 Weeks

Now
35 °F

Fog.


Feels Like: 27 °F
Forecast: 33 / 36 °F
Wind: 10 mph from Northeast

Location: Austin Straubel International Airport

Current Time: Jan 17, 2017 at 7:24:29 am

Latest Report: Jan 17, 2017 at 6:53 am


Visibility: 2 mi

Pressure: 29.86 "Hg

Humidity: 96%

Dew Point: 34 °F

Location of Green BayLocation

Past Weather in Green Bay — Graph

°F

Green Bay Temperature Yesterday

Maximum temperature yesterday: 35 °F (at 9:53 pm)
Minimum temperature yesterday: 17 °F (at 1:53 am)
Average temperature yesterday: 28 °F

High & Low Weather Summary for the Past Weeks

 TemperatureHumidityPressure
High38 °F (Jan 2, 12:53 pm)100% (Jan 10, 12:53 pm)30.87 "Hg (Jan 10, 12:53 pm)
Low-5 °F (Jan 5, 7:53 am)47% (Jan 12, 3:53 pm)29.07 "Hg (Jan 10, 2:37 pm)
Average17 °F75%30.16 "Hg
* Reported Jan 2 5:53 am — Jan 17 5:53 am, Green Bay, Weather by CustomWeather, © 2017

Note: Actual official high and low records may vary slightly from our data, if they occured in-between our weather recording intervals... More about our weather records

Advertising

Green Bay Weather History for the Previous 24 Hours

Scroll right to see more
 ConditionsComfort  
Time TempWeatherWind HumidityBarometerVisibility
5:53 am
Tue, Jan 17
35 °FFog.17 mph96%29.85 "Hg2 mi
4:53 am35 °FFog.16 mph96%29.86 "Hg2 mi
4:24 am34 °FFog.16 mph100%29.85 "Hg2 mi
3:53 am34 °FLight rain. Fog.20 mph97%29.88 "Hg2 mi
2:53 am35 °FFog.15 mph96%29.90 "Hg2 mi
2:44 am35 °FFog.12 mph96%29.89 "Hg2 mi
1:53 am35 °FLight rain. Fog.12 mph96%29.93 "Hg2 mi
1:21 am34 °FLight rain. Fog.12 mph100%29.91 "Hg2 mi
1:01 am34 °FFog.13 mph100%29.92 "Hg3 mi
12:26 am34 °FRain. Fog.10 mph100%29.95 "Hg2 mi
11:53 pm
Mon, Jan 16
34 °FLight rain. Fog.12 mph100%29.97 "Hg4 mi
11:33 pm34 °FLight rain. Fog.13 mph100%29.96 "Hg5 mi
11:07 pm34 °FRain. Fog.12 mph100%29.97 "Hg3 mi
9:53 pm35 °FFreezing rain. Fog.8 mph96%30.04 "Hg2 mi
8:53 pm34 °FFreezing rain. Fog.10 mph97%30.07 "Hg2 mi
8:01 pm33 °FFreezing rain. Fog.8 mph92%30.08 "Hg2 mi
6:53 pm33 °FFreezing rain. Fog.6 mph88%30.13 "Hg4 mi
5:53 pm33 °FLight rain. Overcast.5 mph82%30.14 "Hg6 mi
4:53 pm33 °FLight rain. Overcast.No wind75%30.16 "Hg7 mi
3:53 pm33 °FLight rain. Overcast.5 mph72%30.17 "Hg5 mi
3:38 pm33 °FLight rain. More clouds than sun.5 mph72%30.14 "Hg6 mi
2:53 pm34 °FCloudy.7 mph64%30.18 "Hg8 mi
1:53 pm34 °FPassing clouds.No wind64%30.19 "Hg9 mi
12:53 pm32 °FScattered clouds.5 mph66%30.22 "Hg7 mi
11:53 am29 °FPartly sunny.No wind75%30.25 "Hg7 mi
10:53 am28 °FScattered clouds.No wind75%30.28 "Hg6 mi
9:53 am25 °FSunny.No wind78%30.29 "Hg6 mi
8:53 am20 °FSunny.3 mph85%30.29 "Hg5 mi
7:53 am20 °FSunny.5 mph82%30.29 "Hg5 mi
Weather by CustomWeather, © 2017

See weather overviewHow to use our weather pages